DB0TGO-13 Weather Reports


Display with metric or nautical units.
time (UTC)temp
F
wind
direction
speed
MPH
gust
MPH
rain 1hr
in
rain 24hr
in
rain mn
in
humidity
%
barometer
mb
20260902123010 70 260 6.0 0.0 0.00 0.00 0.00 51 1014.0
20260902121510 69 260 6.0 0.0 0.00 0.00 0.00 50 1014.3
20260902120009 69 270 7.0 0.0 0.00 0.00 0.00 50 1014.3
20260902114509 69 270 8.0 0.0 0.00 0.00 0.00 52 1014.3
20260902113010 69 270 8.0 0.0 0.00 0.00 0.00 52 1014.3
20260902111509 69 270 8.0 0.0 0.00 0.00 0.00 50 1014.4
20260902110009 69 280 8.0 0.0 0.00 0.00 0.00 50 1014.4
20260902104509 68 280 7.0 0.0 0.00 0.00 0.00 55 1014.7
20260902103009 68 280 7.0 0.0 0.00 0.00 0.00 55 1014.7
20260902101510 67 280 7.0 0.0 0.00 0.00 0.00 56 1014.7
20260902100010 67 230 7.0 0.0 0.00 0.00 0.00 56 1014.7
20260902094510 66 260 6.0 0.0 0.00 0.00 0.00 61 1014.8
20260902093010 66 260 6.0 0.0 0.00 0.00 0.00 61 1014.8
20260902091509 65 270 5.0 0.0 0.00 0.00 0.00 63 1014.9
20260902090010 65 270 5.0 0.0 0.00 0.00 0.00 63 1014.9
20260902084510 65 240 6.0 0.0 0.00 0.00 0.00 64 1014.8
20260902083009 65 240 6.0 0.0 0.00 0.00 0.00 64 1014.8
20260902081510 64 230 4.0 0.0 0.00 0.00 0.00 68 1014.5
20260902080012 64 230 4.0 0.0 0.00 0.00 0.00 68 1014.5
20260902074510 62 230 4.0 0.0 0.00 0.00 0.00 75 1014.5
20260902073009 62 240 3.0 0.0 0.00 0.00 0.00 75 1014.5
20260902071509 60 240 3.0 0.0 0.00 0.00 0.00 79 1014.6
20260902070009 60 250 3.0 0.0 0.00 0.00 0.00 79 1014.6
20260902064509 59 250 3.0 0.0 0.00 0.00 0.00 82 1014.6
20260902063010 59 270 3.0 0.0 0.00 0.00 0.00 82 1014.6
20260902061509 58 270 3.0 0.0 0.00 0.00 0.00 85 1014.7
20260902060009 58 270 3.0 0.0 0.00 0.00 0.00 85 1014.7
20260902054510 57 270 3.0 0.0 0.00 0.00 0.00 87 1014.6
20260902053009 57 270 5.0 0.0 0.00 0.00 0.00 87 1014.6
20260902051509 56 270 5.0 0.0 0.00 0.00 0.00 90 1014.5
20260902050010 56 270 5.0 0.0 0.00 0.00 0.00 90 1014.5
20260902044509 53 280 3.0 0.0 0.00 0.00 0.00 97 1014.0
20260902043009 53 280 3.0 0.0 0.00 0.00 0.00 97 1014.0
20260902041509 54 280 3.0 0.0 0.00 0.00 0.00 98 1013.7
20260902040010 54 230 1.0 0.0 0.00 0.00 0.00 98 1013.7
20260902034509 53 250 2.0 0.0 0.00 0.00 0.00 93 1013.9
20260902033009 53 250 2.0 0.0 0.00 0.00 0.00 93 1013.9
20260902031510 57 250 3.0 0.0 0.00 0.00 0.00 89 1013.9
20260902030007 57 250 3.0 0.0 0.00 0.00 0.00 89 1013.9
20260901204509 66 270 9.0 0.0 0.00 0.00 0.00 66 1012.9
20260901203009 66 270 8.0 0.0 0.00 0.00 0.00 66 1012.9
20260901201510 67 270 8.0 0.0 0.00 0.00 0.00 63 1012.7
20260901200010 67 270 10.0 0.0 0.00 0.00 0.00 63 1012.7
20260901194509 69 270 11.0 0.0 0.00 0.00 0.00 57 1012.5
20260901193009 69 270 11.0 0.0 0.00 0.00 0.00 57 1012.5
20260901191509 69 270 11.0 0.0 0.00 0.00 0.00 56 1012.2
20260901190010 69 270 10.0 0.0 0.00 0.00 0.00 56 1012.2
20260901184509 70 270 10.0 0.0 0.00 0.00 0.00 55 1011.8
20260901183009 70 270 8.0 0.0 0.00 0.00 0.00 55 1011.8
20260901181509 71 270 8.0 0.0 0.00 0.00 0.00 54 1011.6
20260901180010 71 270 7.0 0.0 0.00 0.00 0.00 54 1011.6
20260901174509 71 270 7.0 0.0 0.00 0.00 0.00 51 1011.4
20260901173009 71 270 9.0 0.0 0.00 0.00 0.00 51 1011.4
20260901171509 72 270 9.0 0.0 0.00 0.00 0.00 48 1011.4
20260901170009 72 280 13.0 0.0 0.00 0.00 0.00 48 1011.4
20260901164510 73 280 13.0 0.0 0.00 0.00 0.00 46 1011.4
20260901163009 73 280 12.0 0.0 0.00 0.00 0.00 46 1011.4
20260901161509 74 280 12.0 0.0 0.00 0.00 0.00 45 1011.3
20260901160009 74 280 12.0 0.0 0.00 0.00 0.00 45 1011.3
20260901154509 74 270 11.0 0.0 0.00 0.00 0.00 49 1011.3
20260901153009 74 270 11.0 0.0 0.00 0.00 0.00 49 1011.3
20260901151510 73 270 11.0 0.0 0.00 0.00 0.00 48 1011.2
20260901150009 73 270 12.0 0.0 0.00 0.00 0.00 48 1011.2
20260901144509 74 270 12.0 0.0 0.00 0.00 0.00 51 1011.3
20260901143010 74 270 12.0 0.0 0.00 0.00 0.00 51 1011.3
20260901141509 74 260 10.0 0.0 0.00 0.00 0.00 50 1011.5
20260901140009 74 260 10.0 0.0 0.00 0.00 0.00 50 1011.5
20260901134509 71 260 10.0 0.0 0.00 0.00 0.00 53 1011.5
20260901133009 71 260 12.0 0.0 0.00 0.00 0.00 53 1011.5
20260901131510 71 250 12.0 0.0 0.00 0.00 0.00 54 1011.6
20260901130009 71 250 12.0 0.0 0.00 0.00 0.00 54 1011.6
20260901124509 71 250 12.0 0.0 0.00 0.00 0.00 56 1011.7